Location: Unspecified
(40.9447°N, 78.9903°W)
Time: 03:46:31
(UTC-04:00)

Okean 3 - Pass Details

Date: 04 August 2021
Orbit: 575 x 601 km, 82.5° (Epoch: 26 September)

Event Time Altitude Azimuth Distance (km) Brightness Sun altitude
Rises 00:15:50 0° 12° (NNE) 2,842 7.8 -29.9°
Reaches altitude 10° 00:19:04 10° 38° (NE) 1,928 6.5 -30.1°
Enters shadow 00:19:56 12° 49° (NE) 1,774 6.1 -30.1°
